COSMOS 2110 (GLONASS)

Satellite information

Favourite Embed

Satellite Type and Status

PAYLOADIN ORBIT

Key statistics

Satellite COSMOS 2110 (GLONASS) at a glance.

Uptime

12790

Days in orbit

Revolutions

≈ 2.1

Per day

Orbit

MEO

Medium Earth Orbit

Inclination

64.8

Latest

Satellite identification and parameters

Extended collection of information and parameters for COSMOS 2110 (GLONASS).

Object identification

Identified? True

Debris? False

Object name: COSMOS 2110 (GLONASS)

International designator: 1990-110B

Object number (NORAD): 21007

Object ID (CCSDS): 21007

Country: COMMONWEALTH OF INDEPENDENT STATES (CIS)

Current information (Y/N): Y

RCS size: LARGE

Orbital parameters

Period: 675.734 minutes

Inclination: 64.8281 deg

SMA: 25508.066 km

Apoapsis: 19240.813 km

Periapsis: 19019.05 km

RAAN: 77.9183 deg

Eccentricy: 0.00434693

Argument of periapsis: 200.8999 deg

Mean anomaly: 153.5505 deg

Mean motion: 2.13101474 rev/day

Mean motion (dot): -0.00000051 rev/day2

B* drag term: 0.0 1/REarth

Two-line elements (TLE)

Creation date: Dec. 14, 2025, 3:07 a.m.

Reference frame: TEME

Reference center: EARTH

Epoch: Dec. 13, 2025, 10:59 a.m. UTC

TLE line 0: 0 COSMOS 2110 (GLONASS)

TLE line 1: 1 21007U 90110B 25347.45808559 -.00000051 00000-0 00000-0 0 9993

TLE line 2: 2 21007 64.8281 77.9183 0043469 200.8999 153.5505 2.13101474272502

Live tracking on map

Real-time ground track for satellite COSMOS 2110 (GLONASS).

In-orbit conjunctions

There are no conjunctions computed for COSMOS 2110 (GLONASS), at the moment. Check back to stay up to date, as we update our databases every day.

Go to all conjunctions

Associated space launch

GLONASS navigation satellites

COSMOS 2110 (GLONASS) was lifted into orbit during the mission ‘Proton | Uragan 39 to 41’, on board a Proton space rocket.

The launch took place on Dec. 8, 1990, 2:43 a.m. from 200/40.

For more information about the launch, click the button.

Launch to space Proton | Uragan 39 to 41
Proton | Uragan 39 to 41

Agency: N/A

Status: Launch Successful

Launch date: Dec. 8, 1990, 2:43 a.m. UTC

Rocket: Proton

Launch pad: 200/40

Location: Baikonur Cosmodrome, Republic of Kazakhstan

...

Latest news about this satellite

There are no fresh news available about this satellite. Check back as we update our databases every day.


Newsletter sign-up

Weekly statistics, charts and insights to help you stay on top of the space industry.